Location: Saint-Palais-sur-Mer
(45.6429°N, 1.0859°W)
Time: 14:14:16
(UTC+01:00)

ARIANE 6 FM1 Upper Stage - Pass Details

Date: 26 January 2026
Orbit: 522 x 609 km, 62.0° (Epoch: 13 February)

Event Time Altitude Azimuth Distance (km) Brightness Sun altitude
Rises 18:30:41 0° 206° (SSW) 2,714 7.0 -5.4°
Reaches altitude 10° 18:32:57 10° 201° (SSW) 1,810 5.9 -5.8°
Maximum altitude 18:36:53 51° 126° (SE) 680 2.9 -6.5°
Drops below altitude 10° 18:40:47 10° 50° (NE) 1,783 4.6 -7.1°
Enters shadow 18:41:19 - 48° (NE) 1,996 4.9 -7.2°
